Location: Goettingen
(51.5300°N, 9.9433°E)
Time: 10:26:21
(UTC+02:00)

ISS - Pass Details

Date: 20 May 2019
Orbit: 407 x 410 km, 51.6° (Epoch: 21 May)

Event Time Altitude Azimuth Distance (km) Brightness Sun altitude
Rises 02:49:59 0° 283° (WNW) 2,339 -0.1 -15.7°
Reaches altitude 10° 02:52:07 10° 277° (W) 1,476 -1.2 -15.6°
Maximum altitude 02:55:17 44° 204° (SSW) 579 -3.6 -15.4°
Drops below altitude 10° 02:58:27 10° 131° (SE) 1,471 -1.2 -15.2°
Sets 03:00:34 0° 125° (SE) 2,330 -0.1 -15.1°
